EW0380 Weather Reports


Display with metric or nautical units.
time (UTC)temp
F
wind
direction
speed
MPH
gust
MPH
rain 1hr
in
rain 24hr
in
rain mn
in
humidity
%
barometer
mb
20260905215720 75 8 6.0 8.0 0.00 0.00 0.00 56 1014.4
20260905214720 75 13 4.0 7.0 0.00 0.00 0.00 60 1014.4
20260905213719 76 16 3.0 8.0 0.00 0.00 0.00 56 1014.5
20260905212720 76 39 3.0 6.0 0.00 0.00 0.00 54 1014.1
20260905211720 76 17 4.0 6.0 0.00 0.00 0.00 55 1014.1
20260905210719 76 10 6.0 13.0 0.00 0.00 0.00 55 1014.1
20260905205720 76 355 6.0 8.0 0.00 0.00 0.00 55 1014.1
20260905204719 76 290 3.0 6.0 0.00 0.00 0.00 59 1014.1
20260905203720 76 7 2.0 2.0 0.00 0.00 0.00 58 1014.1
20260905202720 76 358 4.0 7.0 0.00 0.00 0.00 62 1014.5
20260905201720 76 24 4.0 6.0 0.00 0.00 0.00 62 1014.5
20260905200720 76 9 9.0 12.0 0.00 0.00 0.00 61 1014.1
20260905195719 76 27 5.0 7.0 0.00 0.00 0.00 60 1014.1
20260905194720 77 26 3.0 4.0 0.00 0.00 0.00 63 1014.5
20260905193720 76 23 5.0 12.0 0.00 0.00 0.00 63 1014.1
20260905192740 77 50 3.0 5.0 0.00 0.00 0.00 60 1014.5
20260905191719 77 350 7.0 11.0 0.00 0.00 0.00 61 1014.5
20260905190720 77 89 4.0 6.0 0.00 0.00 0.00 61 1014.5
20260905185719 76 340 7.0 9.0 0.00 0.00 0.00 64 1014.1
20260905184719 77 343 9.0 14.0 0.00 0.00 0.00 64 1014.5
20260905183719 77 355 6.0 9.0 0.00 0.00 0.00 62 1014.5
20260905182720 0 0.0 0.0 0.00 0.00 0.00
20260905181719 77 354 8.0 13.0 0.00 0.00 0.00 62 1014.5
20260905180719 77 20 5.0 7.0 0.00 0.00 0.00 66 1014.5
20260905175719 77 37 5.0 8.0 0.00 0.00 0.00 63 1014.5
20260905174719 77 357 8.0 13.0 0.00 0.00 0.00 67 1014.5
20260905173720 77 342 7.0 11.0 0.00 0.01 0.00 64 1014.5
20260905172720 77 356 8.0 11.0 0.00 0.01 0.00 70 1014.5
20260905171719 77 35 5.0 7.0 0.00 0.01 0.00 73 1014.9
20260905170720 76 21 6.0 9.0 0.00 0.01 0.00 69 1014.5
20260905165719 77 156 4.0 6.0 0.00 0.02 0.00 66 1015.2
20260905164719 76 341 5.0 7.0 0.00 0.02 0.00 71 1014.8
20260905163720 77 353 9.0 11.0 0.00 0.03 0.00 72 1015.2
20260905162720 75 355 5.0 6.0 0.00 0.04 0.00 74 1015.1
20260905161720 75 352 4.0 5.0 0.00 0.04 0.00 75 1015.1
20260905160752 76 17 4.0 5.0 0.00 0.04 0.00 75 1015.2
20260905155732 76 198 1.0 2.0 0.00 0.04 0.00 70 1015.2
20260905154719 75 356 4.0 4.0 0.00 0.07 0.00 78 1015.1
20260905153720 74 10 2.0 4.0 0.00 0.09 0.00 77 1015.1
20260905152720 74 11 5.0 7.0 0.00 0.12 0.00 78 1015.1
20260905151720 74 37 1.0 2.0 0.00 0.12 0.00 80 1014.5
20260905150719 74 9 5.0 7.0 0.00 0.12 0.00 80 1014.8
20260905145720 74 16 3.0 5.0 0.00 0.12 0.00 83 1014.8
20260905144719 74 352 2.0 6.0 0.00 0.12 0.00 80 1014.5
20260905143720 73 354 5.0 6.0 0.00 0.12 0.00 81 1014.5
20260905142720 73 21 2.0 4.0 0.00 0.12 0.00 81 1014.5
20260905141732 74 13 4.0 6.0 0.00 0.12 0.00 83 1014.5
20260905140720 74 31 2.0 4.0 0.00 0.12 0.00 83 1014.2
20260905135720 73 351 2.0 5.0 0.00 0.12 0.00 86 1014.1
20260905134821 72 349 3.0 5.0 0.00 0.12 0.00 90 1014.5
20260905133720 71 90 6.0 7.0 0.00 0.12 0.00 91 1014.4
20260905132740 71 17 4.0 5.0 0.00 0.12 0.00 95 1014.4
20260905131720 71 0.0 0.0 0.00 0.12 0.00 99 1014.4
20260905130720 70 0.0 0.0 0.00 0.12 0.00 99 1014.4
20260905125720 69 22 0.0 2.0 0.00 0.12 0.00 99 1014.4
20260905124720 69 0.0 0.0 0.00 0.12 0.00 99 1014.4
20260905123720 69 0.0 0.0 0.00 0.12 0.00 99 1014.1
20260905122720 69 0.0 0.0 0.00 0.12 0.00 99 1014.1
20260905121720 69 0.0 0.0 0.00 0.12 0.00 99 1014.1
20260905120720 69 0.0 0.0 0.00 0.12 0.00 99 1014.1
20260905115720 68 0.0 0.0 0.00 0.12 0.00 99 1014.1
20260905114720 68 0.0 0.0 0.00 0.12 0.00 99 1014.1
20260905113720 68 0.0 0.0 0.00 0.12 0.00 99 1014.4
20260905112740 67 0.0 0.0 0.00 0.12 0.00 99 1014.4
20260905111740 68 0.0 0.0 0.00 0.12 0.00 99 1014.4
20260905110720 68 0.0 0.0 0.00 0.12 0.00 99 1014.1
20260905105740 68 0.0 0.0 0.00 0.12 0.00 99 1014.1
20260905104740 68 0.0 0.0 0.00 0.12 0.00 99 1014.1
20260905103720 68 0.0 0.0 0.00 0.12 0.00 99 1014.5
20260905102740 67 0.0 0.0 0.00 0.12 0.00 99 1014.1
20260905101720 67 0.0 0.0 0.00 0.12 0.00 99 1014.1
20260905100740 66 0.0 0.0 0.00 0.12 0.00 99 1013.8
20260905095720 67 0.0 0.0 0.00 0.12 0.00 99 1013.8
20260905094720 67 0.0 0.0 0.00 0.12 0.00 99 1013.8
20260905093720 67 0.0 0.0 0.00 0.12 0.00 99 1013.8
20260905092720 67 0.0 0.0 0.00 0.12 0.00 99 1013.9
20260905091720 68 0.0 0.0 0.00 0.12 0.00 99 1013.5
20260905090720 68 0.0 0.0 0.00 0.12 0.00 99 1013.5
20260905085720 68 0.0 0.0 0.00 0.12 0.00 99 1013.2
20260905084720 68 0.0 0.0 0.00 0.12 0.00 99 1013.2
20260905083720 68 0.0 0.0 0.00 0.12 0.00 99 1013.2
20260905082719 68 0.0 0.0 0.00 0.12 0.00 99 1013.6
20260905081740 68 0.0 0.0 0.00 0.12 0.00 99 1013.6
20260905080720 68 0.0 0.0 0.00 0.12 0.00 99 1013.5
20260905075720 68 0.0 0.0 0.00 0.12 0.00 99 1013.5
20260905074720 68 0.0 0.0 0.00 0.12 0.00 99 1013.5
20260905073720 68 0.0 0.0 0.00 0.12 0.00 99 1013.2
20260905072720 67 0.0 0.0 0.00 0.12 0.00 99 1012.8
20260905071720 67 0.0 0.0 0.00 0.12 0.00 99 1013.1
20260905070720 68 0.0 0.0 0.00 0.12 0.00 99 1013.2
20260905065740 68 0.0 0.0 0.00 0.12 0.00 99 1013.5
20260905064740 67 0.0 0.0 0.00 0.12 0.00 99 1013.8
20260905063720 67 0.0 0.0 0.00 0.12 0.00 99 1013.7
20260905062801 67 0.0 0.0 0.00 0.12 0.00 99 1013.7
20260905061720 67 0.0 0.0 0.00 0.12 0.00 99 1014.1
20260905060720 67 0.0 0.0 0.00 0.12 0.00 99 1014.1
20260905055720 67 0.0 0.0 0.00 0.12 0.00 99 1014.1
20260905054720 67 0.0 0.0 0.00 0.12 0.00 99 1014.1
20260905053720 67 0.0 0.0 0.00 0.12 0.00 99 1014.4
20260905052720 67 0.0 0.0 0.00 0.12 0.00 99 1014.4
20260905051800 67 0.0 0.0 0.00 0.12 0.00 99 1014.4
20260905050720 67 0.0 0.0 0.00 0.12 0.00 99 1014.4
20260905045732 67 0.0 0.0 0.00 0.12 0.00 99 1014.4
20260905044720 67 0.0 0.0 0.00 0.12 0.00 99 1014.4
20260905043720 68 0.0 0.0 0.00 0.12 0.00 99 1014.4
20260905042720 67 0.0 0.0 0.00 0.12 0.00 99 1014.4
20260905041801 67 0.0 0.0 0.00 0.12 0.00 99 1014.4
20260905040720 68 0.0 0.0 0.00 0.12 0.00 99 1014.4
20260905035901 68 0.0 0.0 0.00 0.12 0.12 99 1014.4
20260905034740 68 0.0 0.0 0.00 0.12 0.12 99 1014.4
20260905033720 68 0.0 0.0 0.00 0.12 0.12 99 1014.4
20260905032720 68 0.0 0.0 0.00 0.12 0.12 99 1014.4
20260905031720 68 0.0 0.0 0.00 0.12 0.12 99 1014.1
20260905030720 69 0.0 0.0 0.00 0.12 0.12 99 1014.4
20260905025720 69 0.0 0.0 0.00 0.12 0.12 99 1014.4
20260905024801 69 0.0 0.0 0.00 0.12 0.12 99 1014.4
20260905023720 69 0.0 0.0 0.00 0.12 0.12 99 1014.8
20260905022720 69 0.0 0.0 0.00 0.12 0.12 99 1014.4
20260905021720 69 0.0 0.0 0.00 0.12 0.12 99 1014.8
20260905020720 69 0.0 0.0 0.00 0.12 0.12 99 1014.4
20260905015720 69 0.0 0.0 0.00 0.12 0.12 99 1014.4
20260905014720 70 0.0 0.0 0.00 0.12 0.12 99 1014.8
20260905013720 70 0.0 0.0 0.00 0.12 0.12 99 1014.5
20260905012720 70 0.0 0.0 0.00 0.12 0.12 99 1014.5
20260905011720 70 0.0 0.0 0.00 0.12 0.12 99 1014.5
20260905010720 71 0.0 0.0 0.00 0.12 0.12 99 1014.1
20260905005720 71 0.0 0.0 0.00 0.12 0.12 99 1014.4
20260905004720 71 0.0 0.0 0.00 0.12 0.12 99 1014.1
20260905003720 71 0.0 0.0 0.00 0.12 0.12 99 1014.4
20260905002721 71 0.0 0.0 0.00 0.12 0.12 99 1014.4
20260905001720 71 0.0 0.0 0.00 0.12 0.12 99 1014.4
20260905000741 71 0.0 0.0 0.00 0.13 0.12 99 1014.4
20260904235740 71 0.0 0.0 0.00 0.14 0.12 99 1015.1
20260904234740 72 0.0 0.0 0.00 0.18 0.12 99 1014.8
20260904233720 72 0.0 0.0 0.00 0.21 0.12 97 1014.8
20260904232720 73 0.0 0.0 0.00 0.25 0.12 96 1014.8
20260904231740 73 0.0 0.0 0.00 0.29 0.12 94 1014.8
20260904230719 74 0.0 0.0 0.00 0.32 0.12 93 1014.8
20260904225719 74 344 2.0 2.0 0.00 0.34 0.12 91 1014.5
20260904224720 75 340 0.0 2.0 0.00 0.39 0.12 88 1014.8
20260904223720 75 340 4.0 5.0 0.00 0.54 0.12 86 1014.5
20260904222739 75 317 4.0 5.0 0.00 0.59 0.12 85 1014.5
20260904221719 76 337 5.0 7.0 0.00 0.61 0.12 84 1014.2
20260904220719 76 304 5.0 6.0 0.00 0.61 0.12 84 1014.2